Flag for Brazil Weather past 2 weeks in Santarém, Pará, Brazil

Now
75 °F

Passing clouds.


Feels Like: 73 °F
Forecast: 76 / 85 °F
Wind: No wind

Location: Santarem-Aeroporto

Current Time: May 25, 2015 at 1:10:24 AM

Latest Report: May 25, 2015 at 12:00 AM


Visibility: N/A

Pressure: 29.89 "Hg

Humidity: 100%

Dew point: 75 °F

Location of SantarémLocation

Historic Weather in Santarém — Graph

°F

Santarém temperature yesterday

Maximum temperature yesterday: 86 °F (at 1:00 PM)
Minimum temperature yesterday: 73 °F (at 3:00 AM)
Average temperature yesterday: 80 °F

Past Weeks' High & Low Weather Summary

 TemperatureHumidityPressure
High88 °F (May 10, 4:00 PM)100% (May 10, 12:00 AM)29.98 "Hg (May 10, 12:00 AM)
Low37 °F (May 19, 8:00 AM)24% (May 18, 9:00 AM)29.77 "Hg (May 10, 5:00 PM)
Average79 °F89%29.88 "Hg
* Reported May 9 11:00 PM — May 24 11:00 PM, Santarém, Weather by CustomWeather, © 2015

Note: Actual official high and low records may vary slightly from our data, if they occured in-between our weather recording intervals... More about our weather records

Advertising

Santarém weather history for previous 24 hours

 ConditionsComfort  
Time TempWeatherWind HumidityBarometerVisibility
11:00 PM
Sun, May 24
77 °FClear.No wind94%29.89 "Hg10 mi
10:00 PM77 °FClear.2 mph94%29.89 "Hg10 mi
9:00 PM81 °FClear.3 mph84%29.89 "Hg10 mi
8:00 PM81 °FClear.5 mph84%29.86 "Hg10 mi
7:00 PM81 °FSunny.3 mph84%29.83 "Hg10 mi
6:00 PM84 °FScattered clouds.8 mph79%29.80 "HgN/A
5:00 PM86 °FScattered clouds.9 mph75%29.80 "HgN/A
4:00 PM86 °FScattered clouds.12 mph70%29.80 "HgN/A
3:00 PM84 °FScattered clouds.13 mph79%29.83 "HgN/A
2:00 PM84 °FScattered clouds.14 mph74%29.86 "HgN/A
1:00 PM86 °FBroken clouds.9 mph75%29.89 "HgN/A
12:00 PM84 °FScattered clouds.9 mph79%29.92 "HgN/A
11:00 AM81 °FLight rain. Broken clouds.7 mph89%29.95 "HgN/A
10:00 AM82 °FBroken clouds.7 mph84%29.95 "HgN/A
9:00 AM79 °FBroken clouds.8 mph89%29.95 "HgN/A
8:00 AM77 °FLight rain. Broken clouds.6 mph94%29.92 "HgN/A
7:00 AM77 °FLight rain. Partly cloudy.15 mph94%29.92 "Hg5 mi
6:00 AM73 °FThundershowers. Passing clouds.2 mph100%29.89 "HgN/A
5:00 AM75 °FThundershowers. Passing clouds.No wind94%29.89 "HgN/A
4:00 AM75 °FThunderstorms. Passing clouds.6 mph100%N/AN/A
3:00 AM73 °FThundershowers. Passing clouds.No wind100%29.86 "HgN/A
2:00 AM75 °FPassing clouds.No wind100%29.89 "HgN/A
1:00 AM75 °FPassing clouds.No wind100%29.89 "HgN/A
Weather by CustomWeather, © 2015

See weather overviewHow to use our weather pages